Voltar ao catálogo

STARLINK-37595

AtivoComunicaçõesVLEO
NORAD 69847·PAYLOAD·🇺🇸 United States

Lançado Jul 5, 2026 de Cape Canaveral Space Force Station

Loading…

Próximas Passagens (próximas 24 horas)

TLE

AtualizadoSource: CelesTrak SupGP

Época: Sep 15, 2026, 03:50 UTC

1 69847C 26154AE  26258.16020833  .00074945  00000+0  22138-2 0  2582
2 69847  53.1601 356.8780 0001173  88.5730 336.0527 15.34360025    18

Acompanhe STARLINK-37595 em tempo real com AllMySat

Download on the App Store